[Date Prev][Date Next][Thread Prev][Thread Next] - [Date Index][Thread Index][Author Index]

2 Line ISS Keps 3-2



ISS
1 25544U 98067A   02061.49938752  .00060630  00000-0  68893-3 0  1361
2 25544  51.6364 229.0058 0010465 134.6264 282.2402 15.61670547187395


----
Via the sarex mailing list at AMSAT.ORG courtesy of AMSAT-NA.
To unsubscribe, send "unsubscribe sarex" to Majordomo@amsat.org



AMSAT Top AMSAT Home